Weather History for Ft. Stewart, GA

Change the Weather History Date:

Monday, September 2, 2013

  Actual Average Record
Temperature  
Mean Temperature 81 °F -  
Max Temperature 91 °F 89 °F 96 °F (1980)
Min Temperature 71 °F 70 °F 59 °F (1972)
Cooling Degree Days 16    
Growing Degree Days 31 (Base 50)    
Moisture  
Dew Point 74 °F    
Average Humidity 89    
Maximum Humidity 100    
Minimum Humidity 66    
Precipitation  
Precipitation 0.35 in - - ()
Sea Level Pressure  
Sea Level Pressure 29.93 in    
Wind  
Wind Speed 6 mph (SSW)    
Max Wind Speed 21 mph    
Max Gust Speed 25 mph    
Visibility 9 miles    
Events Rain , Thunderstorm    
Averages and records for this station are not official NWS values.
T = Trace of Precipitation, MM = Missing Value Source: NWS Daily Summary

Daily Weather History Graph

Daily Weather History Graph

Search for Another Location

Airport:

Trip Planner

Search our weather history database for the weather conditions in past years. The results will help you decide how hot, cold, wet, or windy it might be!

Date:

Astronomy

Sep. 02, 2013 Rise Set
Actual Time 7:02 AM EDT 7:48 PM EDT
Civil Twilight 6:37 AM EDT 8:13 PM EDT
Nautical Twilight 6:08 AM EDT 8:42 PM EDT
Astronomical Twilight 5:38 AM EDT 9:12 PM EDT
Moon 4:24 AM EDT (9/2) 5:56 PM EDT (9/2)
Length of Visible Light 13h 35m
Length of Day
12h 46m
Waning Crescent, 8% of the Moon is Illuminated
Sep 2
Waning Crescent
Sep 5
New
Sep 12
First Quarter
Sep 19
Full
Sep 26
Last Quarter

Hourly Weather History & Observations

Time (EDT) Temp. Heat Index Dew Point Humidity Pressure Visibility Wind Dir Wind Speed Gust Speed Precip Events Conditions
12:58 AM 77.5 °F - 75.7 °F 94% 29.94 in 10.0 mi SSW 4.6 mph - N/A   Partly Cloudy
1:58 AM 77.0 °F - 76.1 °F 97% 29.93 in 10.0 mi South 4.6 mph - N/A   Clear
2:58 AM 76.3 °F - 76.3 °F 100% 29.92 in 10.0 mi NNE 1.2 mph - N/A   Clear
3:58 AM 74.8 °F - 74.8 °F 100% 29.92 in 10.0 mi SSW 3.5 mph - N/A   Clear
4:58 AM 74.8 °F - 74.8 °F 100% 29.93 in 10.0 mi SW 2.3 mph - N/A   Clear
5:58 AM 74.7 °F - 74.7 °F 100% 29.92 in 10.0 mi SSW 5.8 mph - N/A   Clear
6:58 AM 74.3 °F - 74.3 °F 100% 29.93 in 10.0 mi SSW 4.6 mph - N/A   Clear
7:58 AM 75.0 °F - 75.0 °F 100% 29.95 in 10.0 mi SSW 4.6 mph - N/A   Clear
8:58 AM 78.4 °F - 78.4 °F 100% 29.96 in 10.0 mi SW 6.9 mph - N/A   Clear
9:58 AM 82.0 °F 91.3 °F 78.6 °F 89% 29.98 in 10.0 mi WSW 9.2 mph - N/A   Partly Cloudy
10:58 AM 84.2 °F 95.7 °F 78.4 °F 83% 29.98 in 10.0 mi West 13.8 mph - N/A   Scattered Clouds
11:18 AM 86.0 °F 99.3 °F 78.8 °F 79% 29.97 in 10.0 mi WSW 11.5 mph - N/A   Mostly Cloudy
11:48 AM 86.0 °F 99.3 °F 78.8 °F 79% 29.97 in 10.0 mi SW 10.4 mph - N/A   Scattered Clouds
11:58 AM 86.5 °F 99.9 °F 78.6 °F 77% 29.97 in 10.0 mi SW 10.4 mph - N/A   Partly Cloudy
12:58 PM 88.0 °F 103.1 °F 79.0 °F 75% 29.96 in 10.0 mi Variable 6.9 mph - N/A   Partly Cloudy
1:58 PM 89.4 °F 105.5 °F 79.2 °F 72% 29.94 in 10.0 mi SW 10.4 mph - N/A   Mostly Cloudy
2:58 PM 89.4 °F 103.6 °F 78.1 °F 69% 29.90 in 10.0 mi SSW 8.1 mph - N/A   Scattered Clouds
3:58 PM 90.1 °F 105.0 °F 78.4 °F 68% 29.88 in 10.0 mi Variable 3.5 mph - N/A   Partly Cloudy
4:58 PM 91.0 °F 106.2 °F 78.3 °F 66% 29.86 in 10.0 mi SSW 6.9 mph - N/A   Scattered Clouds
5:58 PM 89.8 °F 104.0 °F 78.1 °F 68% 29.88 in 10.0 mi WSW 2.3 mph - N/A   Partly Cloudy
6:58 PM 88.5 °F 102.2 °F 78.1 °F 71% 29.87 in 10.0 mi NW 1.2 mph - N/A   Clear
7:22 PM 84.2 °F 92.3 °F 75.2 °F 74% 29.88 in 10.0 mi NNW 20.7 mph 25.3 mph N/A Thunderstorm Thunderstorm
7:50 PM 77.0 °F - 71.6 °F 83% 29.87 in 10.0 mi North 5.8 mph - N/A Thunderstorm Mostly Cloudy
7:58 PM 77.0 °F - 70.9 °F 81% 29.89 in 10.0 mi NE 4.6 mph - N/A   Mostly Cloudy
8:02 PM 77.0 °F - 71.6 °F 83% 29.87 in 10.0 mi NE 3.5 mph - N/A   Light Drizzle
8:14 PM 75.2 °F - 71.6 °F 89% 29.87 in 10.0 mi ENE 8.1 mph - N/A Rain , Thunderstorm Light Thunderstorms and Rain
8:29 PM 75.2 °F - 71.6 °F 89% 29.89 in 10.0 mi East 3.5 mph - N/A Thunderstorm Partly Cloudy
8:30 PM 75.2 °F - 71.6 °F 89% 29.89 in 10.0 mi East 3.5 mph - N/A Thunderstorm Thunderstorm
8:58 PM 74.3 °F - 72.0 °F 92% 29.93 in 10.0 mi SE 9.2 mph - 0.00 in Thunderstorm Thunderstorm
9:22 PM 75.2 °F - 73.4 °F 94% 29.92 in 10.0 mi SSE 11.5 mph 18.4 mph N/A   Mostly Cloudy
9:38 PM 75.2 °F - 73.4 °F 94% 29.94 in 10.0 mi South 11.5 mph - N/A Thunderstorm Thunderstorm
9:54 PM 75.2 °F - 73.4 °F 94% 29.95 in 10.0 mi SSW 10.4 mph 18.4 mph N/A Rain , Thunderstorm Light Thunderstorms and Rain
9:58 PM 74.5 °F - 72.9 °F 95% 29.97 in 10.0 mi SSW 9.2 mph 18.4 mph 0.00 in Rain , Thunderstorm Light Thunderstorms and Rain
10:06 PM 73.4 °F - 71.6 °F 94% 29.95 in 10.0 mi South 10.4 mph 20.7 mph N/A Thunderstorm Thunderstorm
10:15 PM 73.4 °F - 71.6 °F 94% 29.96 in 9.0 mi WSW 8.1 mph - N/A Rain , Thunderstorm Light Thunderstorms and Rain
10:20 PM 73.4 °F - 71.6 °F 94% 29.95 in 2.0 mi SW 8.1 mph - N/A Rain , Thunderstorm Light Thunderstorms and Rain
10:22 PM 73.4 °F - 71.6 °F 94% 29.94 in 1.5 mi Variable 6.9 mph - N/A Rain , Thunderstorm Heavy Rain
10:23 PM 73.4 °F - 71.6 °F 94% 29.94 in 1.2 mi South 8.1 mph - N/A Rain , Thunderstorm Heavy Thunderstorms and Rain
10:28 PM 71.6 °F - 71.6 °F 100% 29.94 in 1.2 mi SSE 8.1 mph - N/A Rain , Thunderstorm Heavy Thunderstorms and Rain
10:33 PM 71.6 °F - 71.6 °F 100% 29.94 in 3.0 mi South 8.1 mph - N/A Rain , Thunderstorm Light Thunderstorms and Rain
10:38 PM 71.6 °F - 71.6 °F 100% 29.93 in 10.0 mi SSE 5.8 mph - N/A Thunderstorm Mostly Cloudy
10:51 PM 71.6 °F - 71.6 °F 100% 29.93 in 10.0 mi Calm Calm - N/A Rain Light Rain
10:58 PM 72.3 °F - 72.3 °F 100% 29.95 in 10.0 mi West 2.3 mph - 0.35 in Rain Light Rain
11:18 PM 71.6 °F - 71.6 °F 100% 29.93 in 10.0 mi Variable 1.2 mph - N/A   Mostly Cloudy
11:58 PM 72.3 °F - 72.3 °F 100% 29.93 in 10.0 mi Calm Calm - 0.00 in   Partly Cloudy